Home   Weather   Villahermosa   Past weeks

Flag for Mexico Past Weather in Villahermosa, Tabasco, Mexico — Yesterday and Last 2 Weeks

Now
68 °F

Fog.


Feels Like: 68 °F
Forecast: 72 / 90 °F
Wind: No wind

Location: Villahermosa Airport

Current Time: Apr 23, 2017 at 7:23:33 am

Latest Report: Apr 23, 2017 at 6:43 am


Visibility: 1 mi

Pressure: 29.87 "Hg

Humidity: 100%

Dew Point: 68 °F

Location of VillahermosaLocation

Past Weather in Villahermosa — Graph

°F

Villahermosa Temperature Yesterday

Maximum temperature yesterday: 91 °F (at 4:41 pm)
Minimum temperature yesterday: 68 °F (at 5:26 am)
Average temperature yesterday: 81 °F

High & Low Weather Summary for the Past Weeks

 TemperatureHumidityPressure
High93 °F (Apr 10, 2:44 pm)100% (Apr 8, 5:21 am)30.05 "Hg (Apr 8, 5:21 am)
Low66 °F (Apr 21, 4:27 am)36% (Apr 11, 1:40 pm)29.77 "Hg (Apr 22, 4:41 pm)
Average80 °F73%29.92 "Hg
* Reported Apr 8 5:21 am — Apr 23 5:40 am, Villahermosa, Weather by CustomWeather, © 2017

Note: Actual official high and low records may vary slightly from our data, if they occured in-between our weather recording intervals... More about our weather records

Advertising

Villahermosa Weather History for the Previous 24 Hours

Scroll right to see more
 ConditionsComfort  
Time TempWeatherWind HumidityBarometerVisibility
5:40 am
Sun, Apr 23
70 °FFog.No wind100%29.90 "Hg2 mi
5:12 am70 °FFog.No wind100%29.88 "Hg2 mi
10:42 pm
Sat, Apr 22
75 °FClear.No wind89%29.89 "Hg5 mi
9:46 pm75 °FClear.No wind89%29.87 "Hg5 mi
8:42 pm77 °FClear.7 mph83%29.85 "Hg5 mi
7:44 pm81 °FClear.6 mph74%29.83 "Hg5 mi
6:51 pm82 °FSunny.8 mph66%29.78 "Hg4 mi
5:48 pm86 °FSunny.12 mph59%29.79 "Hg3 mi
4:41 pm91 °FScattered clouds.9 mph49%29.77 "Hg4 mi
3:47 pm90 °FScattered clouds.5 mph52%29.78 "Hg4 mi
2:56 pm90 °FScattered clouds.8 mph52%29.80 "Hg4 mi
1:40 pm90 °FScattered clouds.5 mph55%29.83 "Hg6 mi
12:43 pm90 °FScattered clouds.No wind55%29.85 "Hg6 mi
11:40 am86 °FScattered clouds.5 mph62%29.87 "Hg6 mi
10:40 am84 °FScattered clouds.No wind70%29.89 "Hg5 mi
9:40 am79 °FScattered clouds.No wind79%29.87 "Hg5 mi
8:40 am77 °FSunny.No wind89%29.86 "Hg7 mi
7:43 am72 °FFog.No wind100%29.85 "Hg2 mi
Weather by CustomWeather, © 2017

See weather overviewHow to use our weather pages